When you browse on this site, cookies collect data to enhance your experience and personalize the content and advertising you see.
Visit our Privacy Policy to learn more. By continuing to use the site, you agree to this use of cookies and data.
  • In Spain
  • List of Countries
  • For 7 days
  • Water Temperature
  • Weather Map
  • Weather Widgets
  • user-avatar
    Login

    Hourly Weather Reading

    Today, 30 May, Saturday

    Time Temperature Precipitation Wind Pressure Humidity
    00:00 +9°C° 0 mm 3 mps 765 mmHg 61%
    01:00 +8°C° 0 mm 3 mps 764 mmHg 66%
    02:00 +8°C° 0 mm 3 mps 764 mmHg 71%
    03:00 +7°C° 0 mm 3 mps 764 mmHg 77%
    04:00 +8°C° 0 mm 3 mps 764 mmHg 80%
    05:00 +10°C° 0 mm 3 mps 764 mmHg 82%
    06:00 +11°C° 0 mm 3 mps 764 mmHg 81%
    07:00 +13°C° 0 mm 3 mps 764 mmHg 76%
    08:00 +16°C° 0 mm 3 mps 764 mmHg 71%
    09:00 +19°C° 0 mm 4 mps 764 mmHg 67%
    10:00 +20°C° 0 mm 4 mps 763 mmHg 61%
    11:00 +21°C° 0 mm 4 mps 763 mmHg 56%
    12:00 +22°C° 0 mm 4 mps 763 mmHg 50%
    13:00 +22°C° 0 mm 4 mps 763 mmHg 50%
    14:00 +22°C° 0 mm 4 mps 763 mmHg 51%
    15:00 +22°C° 0 mm 5 mps 763 mmHg 51%
    16:00 +21°C° 0 mm 4 mps 762 mmHg 56%
    17:00 +21°C° 0 mm 4 mps 762 mmHg 61%
    18:00 +20°C° 0 mm 4 mps 762 mmHg 66%
    19:00 +18°C° 0 mm 4 mps 762 mmHg 70%
    20:00 +15°C° 0 mm 4 mps 763 mmHg 73%
    21:00 +13°C° 0 mm 4 mps 763 mmHg 76%
    22:00 +13°C° 0 mm 3 mps 763 mmHg 79%
    23:00 +12°C° 0 mm 3 mps 763 mmHg 82%

    Tomorrow, 31 May, Sunday

    Time Temperature Precipitation Wind Pressure Humidity
    00:00 +12°C° 0 mm 3 mps 763 mmHg 85%
    01:00 +11°C° 0 mm 3 mps 763 mmHg 86%
    02:00 +11°C° 0 mm 3 mps 763 mmHg 87%
    03:00 +11°C° 0 mm 3 mps 763 mmHg 88%
    04:00 +12°C° 0 mm 3 mps 763 mmHg 85%
    05:00 +13°C° 0 mm 3 mps 763 mmHg 81%
    06:00 +14°C° 0 mm 4 mps 763 mmHg 78%
    07:00 +15°C° 0 mm 4 mps 764 mmHg 71%
    08:00 +17°C° 0 mm 5 mps 764 mmHg 65%
    09:00 +20°C° 0 mm 5 mps 764 mmHg 58%
    10:00 +20°C° 0 mm 5 mps 764 mmHg 56%
    11:00 +21°C° 0 mm 5 mps 764 mmHg 53%
    12:00 +22°C° 0 mm 5 mps 764 mmHg 50%
    13:00 +22°C° 0 mm 5 mps 764 mmHg 51%
    14:00 +22°C° 0 mm 6 mps 764 mmHg 52%
    15:00 +21°C° 0 mm 6 mps 764 mmHg 52%
    16:00 +21°C° 0 mm 5 mps 763 mmHg 56%
    17:00 +20°C° 0 mm 5 mps 763 mmHg 59%
    18:00 +19°C° 0 mm 5 mps 763 mmHg 63%
    19:00 +17°C° 0 mm 4 mps 763 mmHg 66%
    20:00 +14°C° 0 mm 4 mps 764 mmHg 70%
    21:00 +13°C° 0 mm 4 mps 764 mmHg 74%
    22:00 +12°C° 0 mm 4 mps 764 mmHg 78%
    23:00 +11°C° 0 mm 4 mps 764 mmHg 82%

    Day after tomorrow, 1 June, Monday

    Time Temperature Precipitation Wind Pressure Humidity
    00:00 +10°C° 0 mm 4 mps 764 mmHg 86%
    01:00 +10°C° 0 mm 3 mps 764 mmHg 88%
    02:00 +10°C° 0 mm 3 mps 763 mmHg 90%
    03:00 +9°C° 0 mm 3 mps 763 mmHg 92%
    04:00 +10°C° 0 mm 4 mps 763 mmHg 90%
    05:00 +11°C° 0 mm 4 mps 763 mmHg 88%
    06:00 +12°C° 0 mm 4 mps 763 mmHg 87%
    07:00 +14°C° 0 mm 5 mps 763 mmHg 80%
    08:00 +16°C° 0 mm 5 mps 763 mmHg 73%
    09:00 +19°C° 0 mm 6 mps 763 mmHg 66%
    10:00 +20°C° 0 mm 6 mps 763 mmHg 63%
    11:00 +20°C° 0 mm 6 mps 763 mmHg 61%
    12:00 +21°C° 0 mm 5 mps 763 mmHg 59%
    13:00 +21°C° 0 mm 5 mps 763 mmHg 58%
    14:00 +21°C° 0 mm 5 mps 762 mmHg 58%
    15:00 +22°C° 0 mm 5 mps 762 mmHg 57%
    16:00 +21°C° 0 mm 5 mps 762 mmHg 60%
    17:00 +20°C° 0 mm 4 mps 762 mmHg 63%
    18:00 +20°C° 0 mm 4 mps 762 mmHg 67%
    19:00 +18°C° 0 mm 4 mps 762 mmHg 72%
    20:00 +15°C° 0 mm 4 mps 762 mmHg 77%
    21:00 +13°C° 0 mm 4 mps 762 mmHg 82%
    22:00 +12°C° 0 mm 3 mps 762 mmHg 85%
    23:00 +11°C° 0 mm 3 mps 762 mmHg 87%

    2 June, Tuesday

    Time Temperature Precipitation Wind Pressure Humidity
    00:00 +10°C° 0 mm 3 mps 762 mmHg 90%
    01:00 +10°C° 0 mm 3 mps 762 mmHg 92%
    02:00 +10°C° 0 mm 3 mps 761 mmHg 93%
    03:00 +10°C° 0 mm 3 mps 761 mmHg 95%
    04:00 +10°C° 0 mm 3 mps 761 mmHg 92%
    05:00 +11°C° 0 mm 3 mps 761 mmHg 90%
    06:00 +12°C° 0 mm 4 mps 761 mmHg 88%
    07:00 +15°C° 0 mm 4 mps 760 mmHg 82%
    08:00 +18°C° 0 mm 4 mps 760 mmHg 75%
    09:00 +20°C° 0 mm 4 mps 760 mmHg 69%
    10:00 +21°C° 0 mm 4 mps 760 mmHg 64%
    11:00 +24°C° 0 mm 3 mps 760 mmHg 59%
    12:00 +25°C° 0 mm 3 mps 759 mmHg 54%
    13:00 +25°C° 0 mm 3 mps 759 mmHg 55%
    14:00 +25°C° 0 mm 3 mps 758 mmHg 55%
    15:00 +25°C° 0 mm 3 mps 757 mmHg 55%
    16:00 +25°C° 0.1 mm 3 mps 757 mmHg 60%
    17:00 +24°C° 0.1 mm 3 mps 757 mmHg 66%
    18:00 +22°C° 0.1 mm 3 mps 756 mmHg 71%
    19:00 +20°C° 0.1 mm 3 mps 756 mmHg 76%
    20:00 +19°C° 0.1 mm 3 mps 756 mmHg 81%
    21:00 +17°C° 0.1 mm 3 mps 756 mmHg 86%
    22:00 +16°C° 0 mm 2 mps 755 mmHg 87%
    23:00 +15°C° 0 mm 2 mps 755 mmHg 88%

    3 June, Wednesday

    Time Temperature Precipitation Wind Pressure Humidity
    00:00 +14°C° 0 mm 2 mps 755 mmHg 88%
    01:00 +14°C° 0 mm 2 mps 754 mmHg 89%
    02:00 +13°C° 0 mm 2 mps 754 mmHg 90%
    03:00 +12°C° 0 mm 3 mps 754 mmHg 91%
    04:00 +12°C° 0 mm 3 mps 753 mmHg 89%
    05:00 +13°C° 0 mm 4 mps 753 mmHg 87%
    06:00 +13°C° 0 mm 4 mps 753 mmHg 85%
    07:00 +15°C° 0 mm 5 mps 753 mmHg 81%
    08:00 +17°C° 0 mm 5 mps 753 mmHg 76%
    09:00 +20°C° 0 mm 6 mps 753 mmHg 72%
    10:00 +21°C° 0 mm 6 mps 753 mmHg 68%
    11:00 +22°C° 0 mm 6 mps 753 mmHg 64%
    12:00 +23°C° 0 mm 6 mps 753 mmHg 60%
    13:00 +24°C° 0.1 mm 6 mps 753 mmHg 58%
    14:00 +24°C° 0.1 mm 6 mps 753 mmHg 56%
    15:00 +24°C° 0.1 mm 6 mps 753 mmHg 54%
    16:00 +23°C° 0 mm 6 mps 753 mmHg 58%
    17:00 +22°C° 0 mm 6 mps 753 mmHg 62%
    18:00 +21°C° 0 mm 5 mps 753 mmHg 66%
    19:00 +19°C° 0 mm 6 mps 753 mmHg 72%
    20:00 +17°C° 0 mm 6 mps 754 mmHg 79%
    21:00 +15°C° 0 mm 7 mps 754 mmHg 85%
    22:00 +14°C° 0 mm 7 mps 754 mmHg 86%
    23:00 +14°C° 0 mm 7 mps 754 mmHg 88%

    4 June, Thursday

    Time Temperature Precipitation Wind Pressure Humidity
    00:00 +12°C° 0 mm 7 mps 754 mmHg 89%
    01:00 +12°C° 0 mm 7 mps 754 mmHg 89%
    02:00 +12°C° 0 mm 7 mps 754 mmHg 89%
    03:00 +12°C° 0 mm 7 mps 754 mmHg 89%
    04:00 +12°C° 0 mm 7 mps 754 mmHg 88%
    05:00 +12°C° 0 mm 7 mps 754 mmHg 86%
    06:00 +14°C° 0 mm 7 mps 754 mmHg 85%
    07:00 +14°C° 0 mm 7 mps 754 mmHg 83%
    08:00 +15°C° 0 mm 7 mps 754 mmHg 82%
    09:00 +16°C° 0 mm 8 mps 754 mmHg 80%
    10:00 +17°C° 0 mm 7 mps 754 mmHg 77%
    11:00 +18°C° 0 mm 7 mps 754 mmHg 74%
    12:00 +20°C° 0 mm 7 mps 754 mmHg 71%
    13:00 +20°C° 0 mm 7 mps 753 mmHg 70%
    14:00 +21°C° 0 mm 6 mps 753 mmHg 69%
    15:00 +22°C° 0 mm 6 mps 753 mmHg 67%
    16:00 +21°C° 0 mm 6 mps 752 mmHg 70%
    17:00 +21°C° 0 mm 6 mps 752 mmHg 73%
    18:00 +20°C° 0 mm 5 mps 752 mmHg 76%
    19:00 +17°C° 0 mm 5 mps 752 mmHg 82%
    20:00 +15°C° 0 mm 5 mps 752 mmHg 88%
    21:00 +13°C° 0 mm 4 mps 752 mmHg 94%
    22:00 +12°C° 0 mm 4 mps 752 mmHg 95%
    23:00 +11°C° 0 mm 4 mps 752 mmHg 95%
    Show more